date,time,water_lv
2022-09-01,00:00:00,205.9
2022-09-01,00:10:00,205.91
2022-09-01,00:20:00,205.9
2022-09-01,00:30:00,205.9
2022-09-01,00:40:00,205.89
2022-09-01,00:50:00,205.89
2022-09-01,01:00:00,205.88
2022-09-01,01:10:00,205.87
2022-09-01,01:20:00,205.87
2022-09-01,01:30:00,205.87
2022-09-01,01:40:00,205.87
2022-09-01,01:50:00,205.86
2022-09-01,02:00:00,205.85
2022-09-01,02:10:00,205.85
2022-09-01,02:20:00,205.85
2022-09-01,02:30:00,205.84
2022-09-01,02:40:00,205.83
2022-09-01,02:50:00,205.83
2022-09-01,03:00:00,205.82
2022-09-01,03:10:00,205.82
2022-09-01,03:20:00,205.81
2022-09-01,03:30:00,205.81
2022-09-01,03:40:00,205.81
2022-09-01,03:50:00,205.8
2022-09-01,04:00:00,205.79
2022-09-01,04:10:00,205.79
2022-09-01,04:20:00,205.79
2022-09-01,04:30:00,205.79
2022-09-01,04:40:00,205.78
2022-09-01,04:50:00,205.78
2022-09-01,05:00:00,205.77
2022-09-01,05:10:00,205.76
2022-09-01,05:20:00,205.76
2022-09-01,05:30:00,205.75
2022-09-01,05:40:00,205.75
2022-09-01,05:50:00,205.74
2022-09-01,06:00:00,205.73
2022-09-01,06:10:00,205.73
2022-09-01,06:20:00,205.73
2022-09-01,06:30:00,205.72
2022-09-01,06:40:00,205.72
2022-09-01,06:50:00,205.71
2022-09-01,07:00:00,205.71
2022-09-01,07:10:00,205.7
2022-09-01,07:20:00,205.7
2022-09-01,07:30:00,205.69
2022-09-01,07:40:00,205.68
2022-09-01,07:50:00,205.68
2022-09-01,08:00:00,205.67
2022-09-01,08:10:00,205.67
2022-09-01,08:20:00,205.67
2022-09-01,08:30:00,205.66
2022-09-01,08:40:00,205.66
2022-09-01,08:50:00,205.65
2022-09-01,09:00:00,205.64
2022-09-01,09:10:00,205.63
2022-09-01,09:20:00,205.63
2022-09-01,09:30:00,205.62
2022-09-01,09:40:00,205.62
2022-09-01,09:50:00,205.62
2022-09-01,10:00:00,205.61
2022-09-01,10:10:00,205.6
2022-09-01,10:20:00,205.59
2022-09-01,10:30:00,205.59
2022-09-01,10:40:00,205.59
2022-09-01,10:50:00,205.58
2022-09-01,11:00:00,205.58
2022-09-01,11:10:00,205.57
2022-09-01,11:20:00,205.56
2022-09-01,11:30:00,205.56
2022-09-01,11:40:00,205.55
2022-09-01,11:50:00,205.54
2022-09-01,12:00:00,205.54
2022-09-01,12:10:00,205.53
2022-09-01,12:20:00,205.52
2022-09-01,12:30:00,205.53
2022-09-01,12:40:00,205.51
2022-09-01,12:50:00,205.51
2022-09-01,13:00:00,205.51
2022-09-01,13:10:00,205.5
2022-09-01,13:20:00,205.49
2022-09-01,13:30:00,205.5
2022-09-01,13:40:00,205.49
2022-09-01,13:50:00,205.48
2022-09-01,14:00:00,205.48
2022-09-01,14:10:00,205.48
2022-09-01,14:20:00,205.47
2022-09-01,14:30:00,205.46
2022-09-01,14:40:00,205.45
2022-09-01,14:50:00,205.45
2022-09-01,15:00:00,205.45
2022-09-01,15:10:00,205.44
2022-09-01,15:20:00,205.44
2022-09-01,15:30:00,205.44
2022-09-01,15:40:00,205.43
2022-09-01,15:50:00,205.43
2022-09-01,16:00:00,205.42
2022-09-01,16:10:00,205.41
2022-09-01,16:20:00,205.41
2022-09-01,16:30:00,205.41
2022-09-01,16:40:00,205.41
2022-09-01,16:50:00,205.4
2022-09-01,17:00:00,205.4
2022-09-01,17:10:00,205.38
2022-09-01,17:20:00,205.38
2022-09-01,17:30:00,205.38
2022-09-01,17:40:00,205.37
2022-09-01,17:50:00,-
2022-09-01,18:00:00,205.37
2022-09-01,18:10:00,205.36
2022-09-01,18:20:00,205.36
2022-09-01,18:30:00,205.36
2022-09-01,18:40:00,205.35
2022-09-01,18:50:00,205.35
2022-09-01,19:00:00,205.35
2022-09-01,19:10:00,205.34
2022-09-01,19:20:00,205.34
2022-09-01,19:30:00,205.34
2022-09-01,19:40:00,205.34
2022-09-01,19:50:00,205.32
2022-09-01,20:00:00,205.32
2022-09-01,20:10:00,205.32
2022-09-01,20:20:00,205.32
2022-09-01,20:30:00,205.32
2022-09-01,20:40:00,205.31
2022-09-01,20:50:00,205.31
2022-09-01,21:00:00,205.3
2022-09-01,21:10:00,205.3
2022-09-01,21:20:00,205.29
2022-09-01,21:30:00,205.29
2022-09-01,21:40:00,205.29
2022-09-01,21:50:00,205.29
2022-09-01,22:00:00,205.28
2022-09-01,22:10:00,205.27
2022-09-01,22:20:00,205.27
2022-09-01,22:30:00,205.26
2022-09-01,22:40:00,205.26
2022-09-01,22:50:00,205.26
2022-09-01,23:00:00,205.26
2022-09-01,23:10:00,205.26
2022-09-01,23:20:00,205.25
2022-09-01,23:30:00,205.24
2022-09-01,23:40:00,205.23
2022-09-01,23:50:00,205.23
2022-09-02,00:00:00,205.23
2022-09-02,00:10:00,205.23
2022-09-02,00:20:00,205.22
2022-09-02,00:30:00,205.22
2022-09-02,00:40:00,205.21
2022-09-02,00:50:00,205.21
2022-09-02,01:00:00,205.2
2022-09-02,01:10:00,205.2
2022-09-02,01:20:00,205.19
2022-09-02,01:30:00,205.19
2022-09-02,01:40:00,205.19
2022-09-02,01:50:00,205.18
2022-09-02,02:00:00,205.18
2022-09-02,02:10:00,205.18
2022-09-02,02:20:00,205.17
2022-09-02,02:30:00,205.16
2022-09-02,02:40:00,205.16
2022-09-02,02:50:00,205.15
2022-09-02,03:00:00,205.15
2022-09-02,03:10:00,205.15
2022-09-02,03:20:00,205.14
2022-09-02,03:30:00,205.15
2022-09-02,03:40:00,205.15
2022-09-02,03:50:00,205.13
2022-09-02,04:00:00,205.1
2022-09-02,04:10:00,205.11
2022-09-02,04:20:00,205.12
2022-09-02,04:30:00,205.1
2022-09-02,04:40:00,205.1
2022-09-02,04:50:00,205.11
2022-09-02,05:00:00,205.1
2022-09-02,05:10:00,205.1
2022-09-02,05:20:00,205.09
2022-09-02,05:30:00,205.09
2022-09-02,05:40:00,205.09
2022-09-02,05:50:00,205.08
2022-09-02,06:00:00,205.08
2022-09-02,06:10:00,205.07
2022-09-02,06:20:00,205.07
2022-09-02,06:30:00,205.06
2022-09-02,06:40:00,205.06
2022-09-02,06:50:00,205.05
2022-09-02,07:00:00,205.04
2022-09-02,07:10:00,205.04
2022-09-02,07:20:00,205.04
2022-09-02,07:30:00,205.03
2022-09-02,07:40:00,205.03
2022-09-02,07:50:00,205.02
2022-09-02,08:00:00,205.02
2022-09-02,08:10:00,205.01
2022-09-02,08:20:00,205.01
2022-09-02,08:30:00,205
2022-09-02,08:40:00,205
2022-09-02,08:50:00,205
2022-09-02,09:00:00,204.99
2022-09-02,09:10:00,204.98
2022-09-02,09:20:00,204.97
2022-09-02,09:30:00,204.97
2022-09-02,09:40:00,204.97
2022-09-02,09:50:00,204.96
2022-09-02,10:00:00,204.96
2022-09-02,10:10:00,204.96
2022-09-02,10:20:00,204.95
2022-09-02,10:30:00,204.94
2022-09-02,10:40:00,204.94
2022-09-02,10:50:00,204.93
2022-09-02,11:00:00,204.93
2022-09-02,11:10:00,204.93
2022-09-02,11:20:00,204.92
2022-09-02,11:30:00,204.92
2022-09-02,11:40:00,204.92
2022-09-02,11:50:00,204.91
2022-09-02,12:00:00,204.91
2022-09-02,12:10:00,204.9
2022-09-02,12:20:00,204.9
2022-09-02,12:30:00,204.9
2022-09-02,12:40:00,204.89
2022-09-02,12:50:00,204.89
2022-09-02,13:00:00,204.89
2022-09-02,13:10:00,204.89
2022-09-02,13:20:00,204.89
2022-09-02,13:30:00,204.87
2022-09-02,13:40:00,204.87
2022-09-02,13:50:00,204.87
2022-09-02,14:00:00,204.87
2022-09-02,14:10:00,204.87
2022-09-02,14:20:00,204.85
2022-09-02,14:30:00,204.85
2022-09-02,14:40:00,204.85
2022-09-02,14:50:00,204.85
2022-09-02,15:00:00,204.85
2022-09-02,15:10:00,204.84
2022-09-02,15:20:00,204.84
2022-09-02,15:30:00,204.84
2022-09-02,15:40:00,204.84
2022-09-02,15:50:00,204.83
2022-09-02,16:00:00,204.83
2022-09-02,16:10:00,204.83
2022-09-02,16:20:00,204.83
2022-09-02,16:30:00,204.83
2022-09-02,16:40:00,204.82
2022-09-02,16:50:00,204.82
2022-09-02,17:00:00,204.81
2022-09-02,17:10:00,204.82
2022-09-02,17:20:00,204.81
2022-09-02,17:30:00,204.82
2022-09-02,17:40:00,204.81
2022-09-02,17:50:00,204.82
2022-09-02,18:00:00,204.81
2022-09-02,18:10:00,204.81
2022-09-02,18:20:00,204.8
2022-09-02,18:30:00,204.81
2022-09-02,18:40:00,204.81
2022-09-02,18:50:00,204.81
2022-09-02,19:00:00,204.8
2022-09-02,19:10:00,204.8
2022-09-02,19:20:00,204.8
2022-09-02,19:30:00,204.8
2022-09-02,19:40:00,204.8
2022-09-02,19:50:00,204.8
2022-09-02,20:00:00,204.8
2022-09-02,20:10:00,204.8
2022-09-02,20:20:00,204.8
2022-09-02,20:30:00,204.8
2022-09-02,20:40:00,204.8
2022-09-02,20:50:00,204.8
2022-09-02,21:00:00,204.8
2022-09-02,21:10:00,204.79
2022-09-02,21:20:00,204.8
2022-09-02,21:30:00,204.8
2022-09-02,21:40:00,204.79
2022-09-02,21:50:00,204.79
2022-09-02,22:00:00,204.79
2022-09-02,22:10:00,204.79
2022-09-02,22:20:00,204.79
2022-09-02,22:30:00,204.79
2022-09-02,22:40:00,204.79
2022-09-02,22:50:00,204.79
2022-09-02,23:00:00,204.78
2022-09-02,23:10:00,204.78
2022-09-02,23:20:00,204.79
2022-09-02,23:30:00,204.79
2022-09-02,23:40:00,204.79
2022-09-02,23:50:00,204.78
2022-09-03,00:00:00,204.79
2022-09-03,00:10:00,204.79
2022-09-03,00:20:00,204.79
2022-09-03,00:30:00,204.79
2022-09-03,00:40:00,204.78
2022-09-03,00:50:00,204.79
2022-09-03,01:00:00,204.78
2022-09-03,01:10:00,204.79
2022-09-03,01:20:00,204.78
2022-09-03,01:30:00,204.78
2022-09-03,01:40:00,204.79
2022-09-03,01:50:00,204.79
2022-09-03,02:00:00,204.79
2022-09-03,02:10:00,204.78
2022-09-03,02:20:00,204.79
2022-09-03,02:30:00,204.78
2022-09-03,02:40:00,204.78
2022-09-03,02:50:00,204.79
2022-09-03,03:00:00,204.78
2022-09-03,03:10:00,204.79
2022-09-03,03:20:00,204.78
2022-09-03,03:30:00,204.78
2022-09-03,03:40:00,204.78
2022-09-03,03:50:00,204.78
2022-09-03,04:00:00,204.78
2022-09-03,04:10:00,204.79
2022-09-03,04:20:00,204.78
2022-09-03,04:30:00,204.78
2022-09-03,04:40:00,204.78
2022-09-03,04:50:00,204.78
2022-09-03,05:00:00,204.78
2022-09-03,05:10:00,204.78
2022-09-03,05:20:00,204.78
2022-09-03,05:30:00,204.78
2022-09-03,05:40:00,204.78
2022-09-03,05:50:00,204.78
2022-09-03,06:00:00,204.78
2022-09-03,06:10:00,204.78
2022-09-03,06:20:00,204.78
2022-09-03,06:30:00,204.78
2022-09-03,06:40:00,204.78
2022-09-03,06:50:00,204.77
2022-09-03,07:00:00,204.77
2022-09-03,07:10:00,204.77
2022-09-03,07:20:00,204.78
2022-09-03,07:30:00,204.77
2022-09-03,07:40:00,204.77
2022-09-03,07:50:00,204.77
2022-09-03,08:00:00,204.77
2022-09-03,08:10:00,204.77
2022-09-03,08:20:00,204.76
2022-09-03,08:30:00,204.76
2022-09-03,08:40:00,204.76
2022-09-03,08:50:00,204.76
2022-09-03,09:00:00,204.76
2022-09-03,09:10:00,204.76
2022-09-03,09:20:00,204.76
2022-09-03,09:30:00,204.75
2022-09-03,09:40:00,204.76
2022-09-03,09:50:00,204.76
2022-09-03,10:00:00,204.75
2022-09-03,10:10:00,204.75
2022-09-03,10:20:00,204.76
2022-09-03,10:30:00,204.75
2022-09-03,10:40:00,204.75
2022-09-03,10:50:00,204.74
2022-09-03,11:00:00,204.74
2022-09-03,11:10:00,204.74
2022-09-03,11:20:00,204.74
2022-09-03,11:30:00,204.74
2022-09-03,11:40:00,204.73
2022-09-03,11:50:00,204.73
2022-09-03,12:00:00,204.74
2022-09-03,12:10:00,204.72
2022-09-03,12:20:00,204.72
2022-09-03,12:30:00,204.73
2022-09-03,12:40:00,204.72
2022-09-03,12:50:00,204.71
2022-09-03,13:00:00,204.71
2022-09-03,13:10:00,204.71
2022-09-03,13:20:00,204.71
2022-09-03,13:30:00,204.71
2022-09-03,13:40:00,204.7
2022-09-03,13:50:00,204.7
2022-09-03,14:00:00,204.7
2022-09-03,14:10:00,204.7
2022-09-03,14:20:00,204.7
2022-09-03,14:30:00,204.69
2022-09-03,14:40:00,204.69
2022-09-03,14:50:00,204.68
2022-09-03,15:00:00,204.68
2022-09-03,15:10:00,204.68
2022-09-03,15:20:00,204.68
2022-09-03,15:30:00,204.67
2022-09-03,15:40:00,204.67
2022-09-03,15:50:00,204.67
2022-09-03,16:00:00,204.66
2022-09-03,16:10:00,204.66
2022-09-03,16:20:00,204.65
2022-09-03,16:30:00,204.65
2022-09-03,16:40:00,204.65
2022-09-03,16:50:00,204.65
2022-09-03,17:00:00,204.64
2022-09-03,17:10:00,204.64
2022-09-03,17:20:00,204.63
2022-09-03,17:30:00,204.63
2022-09-03,17:40:00,204.63
2022-09-03,17:50:00,204.63
2022-09-03,18:00:00,204.63
2022-09-03,18:10:00,204.62
2022-09-03,18:20:00,204.62
2022-09-03,18:30:00,204.62
2022-09-03,18:40:00,204.62
2022-09-03,18:50:00,204.61
2022-09-03,19:00:00,204.62
2022-09-03,19:10:00,204.62
2022-09-03,19:20:00,204.61
2022-09-03,19:30:00,204.6
2022-09-03,19:40:00,204.61
2022-09-03,19:50:00,204.6
2022-09-03,20:00:00,204.6
2022-09-03,20:10:00,204.59
2022-09-03,20:20:00,204.59
2022-09-03,20:30:00,204.59
2022-09-03,20:40:00,204.59
2022-09-03,20:50:00,204.59
2022-09-03,21:00:00,204.59
2022-09-03,21:10:00,204.59
2022-09-03,21:20:00,204.58
2022-09-03,21:30:00,204.58
2022-09-03,21:40:00,204.58
2022-09-03,21:50:00,204.58
2022-09-03,22:00:00,204.58
2022-09-03,22:10:00,204.57
2022-09-03,22:20:00,204.57
2022-09-03,22:30:00,204.57
2022-09-03,22:40:00,204.57
2022-09-03,22:50:00,204.56
2022-09-03,23:00:00,204.56
2022-09-03,23:10:00,204.56
2022-09-03,23:20:00,204.56
2022-09-03,23:30:00,204.55
2022-09-03,23:40:00,204.55
2022-09-03,23:50:00,204.55
2022-09-04,00:00:00,204.55
2022-09-04,00:10:00,204.55
2022-09-04,00:20:00,204.55
2022-09-04,00:30:00,204.55
2022-09-04,00:40:00,204.55
2022-09-04,00:50:00,204.54
2022-09-04,01:00:00,204.54
2022-09-04,01:10:00,204.54
2022-09-04,01:20:00,204.54
2022-09-04,01:30:00,204.55
2022-09-04,01:40:00,204.54
2022-09-04,01:50:00,204.54
2022-09-04,02:00:00,204.54
2022-09-04,02:10:00,204.54
2022-09-04,02:20:00,204.54
2022-09-04,02:30:00,204.53
2022-09-04,02:40:00,204.54
2022-09-04,02:50:00,204.54
2022-09-04,03:00:00,204.53
2022-09-04,03:10:00,204.54
2022-09-04,03:20:00,204.53
2022-09-04,03:30:00,204.53
2022-09-04,03:40:00,204.53
2022-09-04,03:50:00,204.52
2022-09-04,04:00:00,204.53
2022-09-04,04:10:00,204.53
2022-09-04,04:20:00,204.53
2022-09-04,04:30:00,204.52
2022-09-04,04:40:00,204.52
2022-09-04,04:50:00,204.52
2022-09-04,05:00:00,204.52
2022-09-04,05:10:00,204.52
2022-09-04,05:20:00,204.51
2022-09-04,05:30:00,204.51
2022-09-04,05:40:00,204.51
2022-09-04,05:50:00,204.51
2022-09-04,06:00:00,204.51
2022-09-04,06:10:00,204.51
2022-09-04,06:20:00,204.51
2022-09-04,06:30:00,204.51
2022-09-04,06:40:00,204.5
2022-09-04,06:50:00,204.51
2022-09-04,07:00:00,204.51
2022-09-04,07:10:00,204.5
2022-09-04,07:20:00,204.5
2022-09-04,07:30:00,204.5
2022-09-04,07:40:00,204.49
2022-09-04,07:50:00,204.49
2022-09-04,08:00:00,204.5
2022-09-04,08:10:00,204.49
2022-09-04,08:20:00,204.49
2022-09-04,08:30:00,204.49
2022-09-04,08:40:00,204.49
2022-09-04,08:50:00,204.49
2022-09-04,09:00:00,204.48
2022-09-04,09:10:00,204.48
2022-09-04,09:20:00,204.48
2022-09-04,09:30:00,204.47
2022-09-04,09:40:00,204.47
2022-09-04,09:50:00,204.46
2022-09-04,10:00:00,204.47
2022-09-04,10:10:00,204.47
2022-09-04,10:20:00,204.46
2022-09-04,10:30:00,204.46
2022-09-04,10:40:00,204.46
2022-09-04,10:50:00,204.46
2022-09-04,11:00:00,204.45
2022-09-04,11:10:00,204.45
2022-09-04,11:20:00,204.45
2022-09-04,11:30:00,204.45
2022-09-04,11:40:00,204.45
2022-09-04,11:50:00,204.44
2022-09-04,12:00:00,204.44
2022-09-04,12:10:00,-
2022-09-04,12:20:00,204.44
2022-09-04,12:30:00,204.44
2022-09-04,12:40:00,204.44
2022-09-04,12:50:00,204.44
2022-09-04,13:00:00,204.43
2022-09-04,13:10:00,204.43
2022-09-04,13:20:00,204.43
2022-09-04,13:30:00,204.43
2022-09-04,13:40:00,204.43
2022-09-04,13:50:00,204.43
2022-09-04,14:00:00,204.43
2022-09-04,14:10:00,204.43
2022-09-04,14:20:00,204.43
2022-09-04,14:30:00,204.42
2022-09-04,14:40:00,204.42
2022-09-04,14:50:00,204.42
2022-09-04,15:00:00,204.42
2022-09-04,15:10:00,204.41
2022-09-04,15:20:00,204.41
2022-09-04,15:30:00,204.41
2022-09-04,15:40:00,204.41
2022-09-04,15:50:00,204.41
2022-09-04,16:00:00,204.41
2022-09-04,16:10:00,204.4
2022-09-04,16:20:00,204.41
2022-09-04,16:30:00,204.4
2022-09-04,16:40:00,204.4
2022-09-04,16:50:00,204.4
2022-09-04,17:00:00,204.41
2022-09-04,17:10:00,204.4
2022-09-04,17:20:00,204.4
2022-09-04,17:30:00,204.4
2022-09-04,17:40:00,204.39
2022-09-04,17:50:00,204.39
2022-09-04,18:00:00,204.39
2022-09-04,18:10:00,204.4
2022-09-04,18:20:00,204.4
2022-09-04,18:30:00,204.4
2022-09-04,18:40:00,204.4
2022-09-04,18:50:00,204.4
2022-09-04,19:00:00,204.39
2022-09-04,19:10:00,204.4
2022-09-04,19:20:00,204.4
2022-09-04,19:30:00,204.4
2022-09-04,19:40:00,204.39
2022-09-04,19:50:00,204.39
2022-09-04,20:00:00,204.4
2022-09-04,20:10:00,204.4
2022-09-04,20:20:00,204.4
2022-09-04,20:30:00,204.4
2022-09-04,20:40:00,204.4
2022-09-04,20:50:00,204.4
2022-09-04,21:00:00,204.4
2022-09-04,21:10:00,204.41
2022-09-04,21:20:00,204.4
2022-09-04,21:30:00,204.4
2022-09-04,21:40:00,204.39
2022-09-04,21:50:00,204.39
2022-09-04,22:00:00,204.4
2022-09-04,22:10:00,204.4
2022-09-04,22:20:00,204.4
2022-09-04,22:30:00,204.4
2022-09-04,22:40:00,204.4
2022-09-04,22:50:00,204.4
2022-09-04,23:00:00,204.4
2022-09-04,23:10:00,204.4
2022-09-04,23:20:00,204.4
2022-09-04,23:30:00,204.4
2022-09-04,23:40:00,204.4
2022-09-04,23:50:00,204.41
2022-09-05,00:00:00,204.41
2022-09-05,00:10:00,204.4
2022-09-05,00:20:00,204.41
2022-09-05,00:30:00,204.4
2022-09-05,00:40:00,204.4
2022-09-05,00:50:00,204.41
2022-09-05,01:00:00,204.4
2022-09-05,01:10:00,204.4
2022-09-05,01:20:00,204.41
2022-09-05,01:30:00,204.4
2022-09-05,01:40:00,204.4
2022-09-05,01:50:00,204.4
2022-09-05,02:00:00,204.41
2022-09-05,02:10:00,204.4
2022-09-05,02:20:00,204.41
2022-09-05,02:30:00,204.4
2022-09-05,02:40:00,204.41
2022-09-05,02:50:00,204.41
2022-09-05,03:00:00,204.41
2022-09-05,03:10:00,204.41
2022-09-05,03:20:00,204.41
2022-09-05,03:30:00,204.41
2022-09-05,03:40:00,204.41
2022-09-05,03:50:00,204.42
2022-09-05,04:00:00,204.42
2022-09-05,04:10:00,204.42
2022-09-05,04:20:00,204.41
2022-09-05,04:30:00,204.42
2022-09-05,04:40:00,204.42
2022-09-05,04:50:00,204.42
2022-09-05,05:00:00,204.41
2022-09-05,05:10:00,204.42
2022-09-05,05:20:00,204.42
2022-09-05,05:30:00,204.41
2022-09-05,05:40:00,204.42
2022-09-05,05:50:00,204.43
2022-09-05,06:00:00,204.42
2022-09-05,06:10:00,204.42
2022-09-05,06:20:00,204.42
2022-09-05,06:30:00,204.42
2022-09-05,06:40:00,204.42
2022-09-05,06:50:00,204.42
2022-09-05,07:00:00,204.42
2022-09-05,07:10:00,204.43
2022-09-05,07:20:00,204.42
2022-09-05,07:30:00,204.43
2022-09-05,07:40:00,204.43
2022-09-05,07:50:00,204.43
2022-09-05,08:00:00,204.42
2022-09-05,08:10:00,204.42
2022-09-05,08:20:00,204.42
2022-09-05,08:30:00,204.43
2022-09-05,08:40:00,204.43
2022-09-05,08:50:00,204.43
2022-09-05,09:00:00,204.42
2022-09-05,09:10:00,204.43
2022-09-05,09:20:00,204.42
2022-09-05,09:30:00,204.43
2022-09-05,09:40:00,204.43
2022-09-05,09:50:00,204.43
2022-09-05,10:00:00,204.44
2022-09-05,10:10:00,204.44
2022-09-05,10:20:00,204.44
2022-09-05,10:30:00,204.44
2022-09-05,10:40:00,204.43
2022-09-05,10:50:00,204.43
2022-09-05,11:00:00,204.44
2022-09-05,11:10:00,204.44
2022-09-05,11:20:00,204.44
2022-09-05,11:30:00,204.44
2022-09-05,11:40:00,204.44
2022-09-05,11:50:00,204.44
2022-09-05,12:00:00,204.44
2022-09-05,12:10:00,204.44
2022-09-05,12:20:00,204.44
2022-09-05,12:30:00,204.44
2022-09-05,12:40:00,204.44
2022-09-05,12:50:00,204.44
2022-09-05,13:00:00,204.44
2022-09-05,13:10:00,204.44
2022-09-05,13:20:00,204.44
2022-09-05,13:30:00,204.44
2022-09-05,13:40:00,204.44
2022-09-05,13:50:00,204.44
2022-09-05,14:00:00,204.44
2022-09-05,14:10:00,204.45
2022-09-05,14:20:00,204.45
2022-09-05,14:30:00,204.45
2022-09-05,14:40:00,204.45
2022-09-05,14:50:00,204.45
2022-09-05,15:00:00,204.44
2022-09-05,15:10:00,204.44
2022-09-05,15:20:00,204.45
2022-09-05,15:30:00,204.45
2022-09-05,15:40:00,204.45
2022-09-05,15:50:00,204.45
2022-09-05,16:00:00,204.45
2022-09-05,16:10:00,204.44
2022-09-05,16:20:00,204.45
2022-09-05,16:30:00,204.45
2022-09-05,16:40:00,204.45
2022-09-05,16:50:00,204.46
2022-09-05,17:00:00,204.46
2022-09-05,17:10:00,204.45
2022-09-05,17:20:00,204.46
2022-09-05,17:30:00,204.46
2022-09-05,17:40:00,204.46
2022-09-05,17:50:00,204.45
2022-09-05,18:00:00,204.46
2022-09-05,18:10:00,204.47
2022-09-05,18:20:00,204.47
2022-09-05,18:30:00,204.47
2022-09-05,18:40:00,204.47
2022-09-05,18:50:00,204.47
2022-09-05,19:00:00,204.47
2022-09-05,19:10:00,204.46
2022-09-05,19:20:00,204.48
2022-09-05,19:30:00,204.48
2022-09-05,19:40:00,204.47
2022-09-05,19:50:00,204.47
2022-09-05,20:00:00,204.47
2022-09-05,20:10:00,204.48
2022-09-05,20:20:00,204.48
2022-09-05,20:30:00,204.48
2022-09-05,20:40:00,204.48
2022-09-05,20:50:00,204.48
2022-09-05,21:00:00,204.48
2022-09-05,21:10:00,204.48
2022-09-05,21:20:00,204.48
2022-09-05,21:30:00,204.48
2022-09-05,21:40:00,204.48
2022-09-05,21:50:00,204.48
2022-09-05,22:00:00,204.49
2022-09-05,22:10:00,204.49
2022-09-05,22:20:00,204.49
2022-09-05,22:30:00,204.48
2022-09-05,22:40:00,204.48
2022-09-05,22:50:00,204.48
2022-09-05,23:00:00,204.49
2022-09-05,23:10:00,204.49
2022-09-05,23:20:00,204.49
2022-09-05,23:30:00,204.49
2022-09-05,23:40:00,204.5
2022-09-05,23:50:00,204.5
2022-09-06,00:00:00,204.5
2022-09-06,00:10:00,204.5
2022-09-06,00:20:00,204.49
2022-09-06,00:30:00,204.5
2022-09-06,00:40:00,204.5
2022-09-06,00:50:00,204.5
2022-09-06,01:00:00,204.5
2022-09-06,01:10:00,204.5
2022-09-06,01:20:00,204.5
2022-09-06,01:30:00,204.5
2022-09-06,01:40:00,204.51
2022-09-06,01:50:00,204.5
2022-09-06,02:00:00,204.5
2022-09-06,02:10:00,204.51
2022-09-06,02:20:00,204.51
2022-09-06,02:30:00,204.51
2022-09-06,02:40:00,204.51
2022-09-06,02:50:00,204.51
2022-09-06,03:00:00,204.51
2022-09-06,03:10:00,204.52
2022-09-06,03:20:00,204.52
2022-09-06,03:30:00,204.52
2022-09-06,03:40:00,204.52
2022-09-06,03:50:00,204.52
2022-09-06,04:00:00,204.53
2022-09-06,04:10:00,204.53
2022-09-06,04:20:00,204.53
2022-09-06,04:30:00,204.54
2022-09-06,04:40:00,204.53
2022-09-06,04:50:00,204.53
2022-09-06,05:00:00,204.54
2022-09-06,05:10:00,204.54
2022-09-06,05:20:00,204.54
2022-09-06,05:30:00,204.55
2022-09-06,05:40:00,204.54
2022-09-06,05:50:00,204.55
2022-09-06,06:00:00,204.55
2022-09-06,06:10:00,204.55
2022-09-06,06:20:00,204.55
2022-09-06,06:30:00,204.55
2022-09-06,06:40:00,204.56
2022-09-06,06:50:00,204.56
2022-09-06,07:00:00,204.55
2022-09-06,07:10:00,204.56
2022-09-06,07:20:00,204.57
2022-09-06,07:30:00,204.57
2022-09-06,07:40:00,204.57
2022-09-06,07:50:00,204.57
2022-09-06,08:00:00,204.57
2022-09-06,08:10:00,204.57
2022-09-06,08:20:00,204.58
2022-09-06,08:30:00,204.58
2022-09-06,08:40:00,204.58
2022-09-06,08:50:00,204.58
2022-09-06,09:00:00,204.58
2022-09-06,09:10:00,204.59
2022-09-06,09:20:00,204.59
2022-09-06,09:30:00,204.58
2022-09-06,09:40:00,204.59
2022-09-06,09:50:00,204.59
2022-09-06,10:00:00,204.6
2022-09-06,10:10:00,204.6
2022-09-06,10:20:00,204.6
2022-09-06,10:30:00,204.61
2022-09-06,10:40:00,204.61
2022-09-06,10:50:00,204.61
2022-09-06,11:00:00,204.6
2022-09-06,11:10:00,204.61
2022-09-06,11:20:00,204.62
2022-09-06,11:30:00,204.62
2022-09-06,11:40:00,204.62
2022-09-06,11:50:00,204.62
2022-09-06,12:00:00,204.62
2022-09-06,12:10:00,204.62
2022-09-06,12:20:00,204.63
2022-09-06,12:30:00,204.62
2022-09-06,12:40:00,204.62
2022-09-06,12:50:00,204.63
2022-09-06,13:00:00,204.63
2022-09-06,13:10:00,204.63
2022-09-06,13:20:00,-
2022-09-06,13:30:00,204.63
2022-09-06,13:40:00,204.63
2022-09-06,13:50:00,204.63
2022-09-06,14:00:00,204.64
2022-09-06,14:10:00,204.64
2022-09-06,14:20:00,204.64
2022-09-06,14:30:00,204.64
2022-09-06,14:40:00,204.64
2022-09-06,14:50:00,204.65
2022-09-06,15:00:00,204.65
2022-09-06,15:10:00,204.65
2022-09-06,15:20:00,204.65
2022-09-06,15:30:00,204.65
2022-09-06,15:40:00,204.65
2022-09-06,15:50:00,204.65
2022-09-06,16:00:00,204.66
2022-09-06,16:10:00,204.66
2022-09-06,16:20:00,204.66
2022-09-06,16:30:00,204.66
2022-09-06,16:40:00,204.66
2022-09-06,16:50:00,204.67
2022-09-06,17:00:00,204.66
2022-09-06,17:10:00,204.66
2022-09-06,17:20:00,204.67
2022-09-06,17:30:00,204.67
2022-09-06,17:40:00,204.67
2022-09-06,17:50:00,204.67
2022-09-06,18:00:00,204.67
2022-09-06,18:10:00,204.67
2022-09-06,18:20:00,204.67
2022-09-06,18:30:00,204.68
2022-09-06,18:40:00,204.67
2022-09-06,18:50:00,204.68
2022-09-06,19:00:00,204.68
2022-09-06,19:10:00,204.68
2022-09-06,19:20:00,204.68
2022-09-06,19:30:00,204.69
2022-09-06,19:40:00,204.69
2022-09-06,19:50:00,204.69
2022-09-06,20:00:00,204.69
2022-09-06,20:10:00,204.69
2022-09-06,20:20:00,204.69
2022-09-06,20:30:00,204.69
2022-09-06,20:40:00,204.7
2022-09-06,20:50:00,204.69
2022-09-06,21:00:00,204.69
2022-09-06,21:10:00,204.69
2022-09-06,21:20:00,204.69
2022-09-06,21:30:00,204.69
2022-09-06,21:40:00,204.69
2022-09-06,21:50:00,204.69
2022-09-06,22:00:00,204.69
2022-09-06,22:10:00,204.69
2022-09-06,22:20:00,204.69
2022-09-06,22:30:00,204.7
2022-09-06,22:40:00,204.69
2022-09-06,22:50:00,204.7
2022-09-06,23:00:00,204.69
2022-09-06,23:10:00,204.7
2022-09-06,23:20:00,204.69
2022-09-06,23:30:00,204.7
2022-09-06,23:40:00,204.7
2022-09-06,23:50:00,204.7
2022-09-07,00:00:00,204.69
2022-09-07,00:10:00,204.68
2022-09-07,00:20:00,204.69
2022-09-07,00:30:00,204.69
2022-09-07,00:40:00,204.69
2022-09-07,00:50:00,204.69
2022-09-07,01:00:00,204.69
2022-09-07,01:10:00,204.68
2022-09-07,01:20:00,204.68
2022-09-07,01:30:00,204.67
2022-09-07,01:40:00,204.68
2022-09-07,01:50:00,204.68
2022-09-07,02:00:00,204.67
2022-09-07,02:10:00,204.67
2022-09-07,02:20:00,204.68
2022-09-07,02:30:00,204.67
2022-09-07,02:40:00,204.67
2022-09-07,02:50:00,204.67
2022-09-07,03:00:00,204.67
2022-09-07,03:10:00,204.67
2022-09-07,03:20:00,204.67
2022-09-07,03:30:00,204.67
2022-09-07,03:40:00,204.67
2022-09-07,03:50:00,204.66
2022-09-07,04:00:00,204.66
2022-09-07,04:10:00,204.66
2022-09-07,04:20:00,204.67
2022-09-07,04:30:00,204.66
2022-09-07,04:40:00,204.66